Current weather by "City, St" or "zip code"  
 

Current Conditions: Pawtucket, North Central State Airport, RI

Light Rain Fog/Mist


61.0 F

Last Updated on May 21 2022, 5:56 am EDT
Humidity: 100%
Wind Speed: 4.6 mph
Barometer 29.97 in
Dewpoint: 61.0 F
Visibility: 1.00 mi
Precip: 00.01 in
Heat Index: NA
Wind Chill: 61 F
Current conditions at:

Pawtucket, North Central State Airport, RI (KSFZ)

Lat: 41.91667 Lon: 71.5

Local Radar Image active severe weather and emergency alerts image image weather storm and storm spotter reports image weather observation monitoring service image
Local
Radar
Active
Alerts
Storm Reports Obs
Monitoring

Sign-up For Email & Text Message Weather Alert Notification Services



Advertise Here

Observation History for Pawtucket, North Central State Airport, RI


Time Wind
(mph)
Vis
(mi)
Weather Precip (in) Temperature (F) Relative
Humidity
Wind
Chill
(F)
Heat
Index
(F)
Pressure
Air Dwpt altimeter
(in)
sea level
(mb)
Rmks
5:56 am EDT 4.6 1.00 Light Rain Fog/Mist 00.01 61.0 61.0 100% 61 NA 29.97 1014.8
4:56 am EDT 4.6 0.50 Light Rain Fog Trace 61.0 61.0 100% 61 NA 29.97 1014.6
3:56 am EDT S 3.5 0.75 Light Rain Fog/Mist Trace 61.0 61.0 100% NA NA 29.98 1014.9
2:56 am EDT N 0.0 1.75 Fog/Mist -- 60.0 60.1 100% NA NA 29.99 1015.2
1:56 am EDT 3.5 2.50 Fog/Mist 00.01 60.0 60.1 100% NA NA 30.01 1016.1
12:56 am EDT 5.8 4.00 Light Rain Fog/Mist 00.07 59.0 59.0 100% 58 NA 30.02 1016.3
11:56 pm EDT SE 5.8 3.00 Light Rain Fog/Mist 00.01 59.0 57.9 96% 58 NA 30.04 1017.0
10:56 pm EDT 3.5 7.00 Overcast Trace 58.0 57.0 97% NA NA 30.04 1017.2
9:56 pm EDT 5.8 10.00 Overcast -- 59.0 57.0 93% 58 NA 30.05 1017.4
8:56 pm EDT 3.5 10.00 Overcast -- 60.0 57.0 90% NA NA 30.05 1017.5
7:56 pm EDT 5.8 10.00 Overcast -- 60.0 55.9 86% 60 NA 30.02 1016.3
6:56 pm EDT 4.6 10.00 Overcast -- 62.0 55.0 78% 62 NA 30.03 1016.9
5:56 pm EDT 6.9 10.00 Fair -- 65.0 55.0 70% NA NA 30.02 1016.6
4:56 pm EDT SE 9.2 10.00 Fair -- 67.0 55.9 68% NA NA 30.01 1016.1
3:56 pm EDT SE 10.4 10.00 Fair -- 68.0 55.0 63% NA NA 30.02 1016.4
2:56 pm EDT S 9.2 10.00 Fair -- 71.0 54.0 55% NA NA 30.02 1016.6
11:56 am EDT N 0.0 10.00 Fair -- 68.0 54.0 61% NA NA 30.04 1017.1
10:56 am EDT S 4.6 10.00 Fair -- 65.0 53.1 66% NA NA 30.03 1016.7
9:56 am EDT 3.5 10.00 Fair -- 63.0 53.1 70% NA NA 30.02 1016.6
8:56 am EDT N 0.0 10.00 Overcast -- 60.0 52.0 75% NA NA 30.01 1016.1
7:56 am EDT N 0.0 10.00 Fair -- 57.0 52.0 83% NA NA 29.99 1015.6
5:56 am EDT N 0.0 10.00 Fair -- 47.0 46.9 100% NA NA 29.91 1013.0

Regional Weather Observation


Norwood, Norwood Memorial Airport, MA (KOWD)

Fog/Mist
63.0 F

Pawtucket, North Central State Airport, RI (KSFZ)

Light Rain Fog/Mist
61.0 F

Fitchburg, Fitchburg Municipal Airport, MA (KFIT)

Fog/Mist
61.0 F

Laurence G Hanscom Field Airport, MA (KBED)

Fog/Mist
59.0 F

Boston, Logan International Airport, MA (KBOS)

Light Drizzle Fog/Mist
57.0 F

Providence, Theodore Francis Green State Airport, RI (KPVD)

Fog/Mist
62.0 F

Advertise Here


Advertise Here